Regional Weather Roundup
Issued by NWS

Home | Current Version | Previous Version | Graphics & Text | Print | Product List | Glossary Off
Versions: 1 2 3 4 5 6 7 8 9 10 11 12 13 14 15 16 17 18 19 20 21 22 23 24 25 26 27 28 29 30 31 32 33 34 35 36 37 38 39 40 41 42 43 44 45 46 47 48 49 50

000
ASUS43 KDMX 212006
RWRIA

WEATHER ROUNDUP FOR IOWA
NATIONAL WEATHER SERVICE DES MOINES IA
300 PM CDT THU SEP 21 2017

NOTE: "FAIR" INDICATES FEW OR NO CLOUDS BELOW 12,000 FEET WITH NO
SIGNIFICANT WEATHER AND/OR OBSTRUCTIONS TO VISIBILITY.

* - THESE STATIONS ARE NOT NWS STATIONS...THUS NOT UNDER NWS
QUALITY CONTROL.  THEY ALSO DO NOT REPORT WEATHER SUCH
AS PRECIPITATION OR FOG.

IAZ001>003-012>014-020>022-031>034-043>046-212100-
   NORTHWEST IOWA

CITY           SKY/WX    TMP DP  RH WIND       PRES   REMARKS
CARROLL *      SUNNY     86  72  62 S20G30    29.80F HX  92
CHEROKEE *     MOSUNNY   82  73  73 SE17G26   29.78F HX  88
DENISON *      MOSUNNY   84  72  65 S17G30    29.81F HX  89
LE MARS *      PTSUNNY   88  72  58 S28       29.73F HX  94
ORANGE CITY *  MOSUNNY   84  75  74 S15G23    29.75F HX  92
SHELDON *      PTSUNNY   84  73  70 S18G31    29.75F HX  91
SIOUX CITY     MOSUNNY   88  73  61 S17G28    29.73F HX  95
SPENCER        MOSUNNY   83  72  69 S21       29.79F HX  88
STORM LAKE *   MOSUNNY   82  70  65 S14G31    29.81F HX  86
$$

IAZ055>058-069>071-079>083-090>094-212100-
   SOUTHWEST IOWA

CITY           SKY/WX    TMP DP  RH WIND       PRES   REMARKS
ATLANTIC *     MOSUNNY   86  73  66 S20G26    29.81F HX  93
AUDUBON *      SUNNY     84  73  70 SE13G21   29.83F HX  91
CLARINDA *     MOSUNNY   90  75  62 S9G20     29.82F HX 100
COUNCIL BLFS * MOSUNNY   90  75  62 S21G31    29.78F HX 100
CRESTON *      CLOUDY    86  72  62 SE23G31   29.86F HX  92
HARLAN  *      MOSUNNY   86  73  66 S17       29.83F HX  93
LAMONI         SUNNY     86  73  65 S14G26    29.87F HX  93
RED OAK *      SUNNY     88  75  66 SE17G25   29.80F HX  97
SHENANDOAH *   SUNNY     93  72  49 S22G30    29.79F HX 100
$$

IAZ047>049-059>061-072>074-084-212100-
   CENTRAL IOWA

CITY           SKY/WX    TMP DP  RH WIND       PRES   REMARKS
AMES           SUNNY     87  72  60 S17G26    29.84F HX  93
ANKENY *       SUNNY     86  72  62 S14G23    29.85F HX  92
BOONE *        SUNNY     88  70  55 S14G23    29.84F HX  92
CHARITON *     SUNNY     86  73  66 S14G22    29.88F HX  93
DES MOINES     MOSUNNY   88  72  58 S20       29.85F HX  94
GRINNELL*      SUNNY     88  69  53 S18G24    29.90F HX  92
KNOXVILLE *    SUNNY     88  70  55 S20       29.86F HX  92
MARSHALLTOWN   SUNNY     89  71  55 S17       29.86F HX  95
NEWTON *       SUNNY     88  72  58 S21       29.87F HX  94
PELLA *        SUNNY     89  69  50 S14       29.89F HX  94
PERRY *          N/A     88  72  58 SE15G24   29.84F HX  94
$$

IAZ004>006-015-016-023>025-035-036-212100-
   NORTH CENTRAL IOWA

CITY           SKY/WX    TMP DP  RH WIND       PRES   REMARKS
ALGONA *       MOSUNNY   86  72  62 S17G26    29.82F HX  92
CLARION *      SUNNY     90  70  51 S21G29    29.83F HX  95
ESTHERVILLE    CLOUDY    81  72  74 S17G26    29.80F HX  85
FORT DODGE *   SUNNY     87  71  58 S17G25    29.82F HX  93
MASON CITY     SUNNY     88  67  49 S16G24    29.86F HX  91
FOREST CITY *    N/A     86  68  54 S17       29.84F HX  89
WEBSTER CITY * SUNNY     88  70  55 S16G26    29.82F HX  92
IOWA FALLS *     N/A     89  68  50 S21       29.87S HX  93
$$

IAZ007>011-017>019-026>030-037>042-050>054-066-212100-
   NORTHEAST IOWA

CITY           SKY/WX    TMP DP  RH WIND       PRES   REMARKS
CEDAR RAPIDS   CLOUDY    91  67  44 S17G25    29.90R HX  94
CHARLES CITY * SUNNY     88  64  45 S12G20    29.88F HX  89
CLINTON *      CLOUDY   N/A N/A N/A SE12      29.98R
DECORAH *      SUNNY     86  63  45 VRB7G16   29.91F HX  87
DUBUQUE        MOSUNNY   82  62  50 SE14      29.97F HX  83
MONTICELLO *   MOSUNNY   88  63  42 SE14G21   29.94R HX  88
OELWEIN *      SUNNY     91  64  40 S17G24    29.91S HX  93
WATERLOO       SUNNY     90  65  43 S16G23    29.86F HX  92
$$

IAZ064-065-067-068-078-212100-
   EAST CENTRAL IOWA

CITY           SKY/WX    TMP DP  RH WIND       PRES   REMARKS
DAVENPORT      PTSUNNY   83  65  54 SE12      29.99R HX  85
IOWA CITY      CLOUDY    91  69  48 S13G23    29.93S HX  96
MUSCATINE *    CLOUDY    84  70  61 SE9       29.94S HX  88
QUAD CITIES    CLOUDY    83  66  56 E10       29.96R HX  85
$$

IAZ062-063-075>077-085>089-095>099-212100-
   SOUTHEAST IOWA

CITY           SKY/WX    TMP DP  RH WIND       PRES   REMARKS
BURLINGTON     PTSUNNY   83  67  58 S10       29.95S HX  85
FAIRFIELD *    SUNNY     84  68  58 S16G23    29.92F HX  87
FORT MADISON * CLOUDY    88  66  48 SE10      29.96F HX  90
KEOKUK *       CLOUDY    86  66  51 S9G15     29.95F HX  88
OSKALOOSA *      N/A     87  69  54 S16G22    29.90F HX  91
OTTUMWA        SUNNY     87  70  56 S15       29.89F HX  92
WASHINGTON *   CLOUDY    86  68  54 S12G23    29.94S HX  89
$$

ABBREVIATIONS USED IN REMARKS
   TC - TEMPERATURES IN CELSIUS
  WCI - WIND CHILL INDEX
   HX - HEAT INDEX
  VSB - VISIBILITY
$$




USA.gov is the U.S. government's official web portal to all federal, state and local government web resources and services.